Epoch 2022 Jan. 21.0 TT = JDT 2459600.5 T 2022 Aug. 25.78603 TT Rudenko q 0.9729530 (2000.0) P Q n 0.18121356 Peri. 199.48146 -0.02175351 +0.98296249 a 3.0927318 Node 69.61492 -0.88949819 +0.06431375 e 0.6854066 Incl. 11.22770 -0.45642059 -0.17218733 P 5.44 From 1580 observations 2016 Feb. 13-2022 Feb. 22, mean residual 0".7.
m1 = 9.7 + 5 logΔ + 16.5 log r [ ,-76] ( 〜2022年 6月10日) m1 = 11.2 + 5 logΔ + 6.5 log r [-76, 0] (2022年 6月10日〜2022年 8月25日) m1 = 11.4 + 5 logΔ + 15.0 log r [ 0, ] (2022年 8月25日〜 )